EN

Hourly Weather Alzamay

Today, 25 January, Monday

Time Temperature Precipitation Wind Pressure Humidity
00:00 -20°C° 0 mm 1 mps 741 mmHg 96%
01:00 -17°C° 0 mm 0 mps 741 mmHg 93%
02:00 -17°C° 0 mm 0 mps 741 mmHg 93%
03:00 -17°C° 0 mm 0 mps 741 mmHg 94%
04:00 -17°C° 0 mm 1 mps 741 mmHg 95%
05:00 -18°C° 0 mm 1 mps 741 mmHg 95%
06:00 -19°C° 0 mm 1 mps 741 mmHg 96%
07:00 -19°C° 0 mm 1 mps 742 mmHg 96%
08:00 -19°C° 0 mm 1 mps 742 mmHg 96%
09:00 -18°C° 0 mm 1 mps 743 mmHg 96%
10:00 -19°C° 0 mm 2 mps 743 mmHg 96%
11:00 -22°C° 0 mm 3 mps 743 mmHg 94%
12:00 -23°C° 0 mm 3 mps 744 mmHg 93%
13:00 -25°C° 0 mm 4 mps 744 mmHg 92%
14:00 -21°C° 0 mm 3 mps 742 mmHg 90%
15:00 -21°C° 0 mm 3 mps 743 mmHg 90%
16:00 -22°C° 0 mm 3 mps 743 mmHg 91%
17:00 -23°C° 0 mm 3 mps 744 mmHg 92%
18:00 -24°C° 0 mm 3 mps 744 mmHg 93%
19:00 -25°C° 0 mm 3 mps 744 mmHg 94%
20:00 -26°C° 0 mm 3 mps 745 mmHg 94%
21:00 -27°C° 0 mm 3 mps 745 mmHg 94%
22:00 -29°C° 0 mm 3 mps 746 mmHg 94%
23:00 -29°C° 0 mm 3 mps 746 mmHg 94%

Tomorrow, 26 January, Tuesday

Time Temperature Precipitation Wind Pressure Humidity
00:00 -28°C° 0 mm 2 mps 746 mmHg 94%
01:00 -28°C° 0 mm 2 mps 746 mmHg 94%
02:00 -29°C° 0 mm 2 mps 746 mmHg 95%
03:00 -30°C° 0 mm 2 mps 747 mmHg 95%
04:00 -28°C° 0 mm 1 mps 747 mmHg 96%
05:00 -29°C° 0 mm 1 mps 747 mmHg 96%
06:00 -29°C° 0 mm 1 mps 747 mmHg 97%
07:00 -30°C° 0 mm 1 mps 748 mmHg 97%
08:00 -30°C° 0 mm 1 mps 748 mmHg 97%
09:00 -30°C° 0 mm 1 mps 748 mmHg 96%
10:00 -29°C° 0 mm 0 mps 748 mmHg 95%
11:00 -30°C° 0 mm 1 mps 748 mmHg 94%
12:00 -29°C° 0 mm 1 mps 748 mmHg 92%
13:00 -28°C° 0 mm 1 mps 748 mmHg 90%
14:00 -29°C° 0 mm 1 mps 748 mmHg 92%
15:00 -29°C° 0 mm 1 mps 748 mmHg 93%
16:00 -29°C° 0 mm 1 mps 748 mmHg 95%
17:00 -30°C° 0 mm 1 mps 748 mmHg 96%
18:00 -30°C° 0 mm 1 mps 748 mmHg 97%
19:00 -30°C° 0 mm 0 mps 749 mmHg 98%
20:00 -30°C° 0 mm 0 mps 749 mmHg 98%
21:00 -30°C° 0 mm 0 mps 749 mmHg 98%
22:00 -31°C° 0 mm 1 mps 749 mmHg 98%
23:00 -32°C° 0 mm 1 mps 749 mmHg 98%

Day after tomorrow, 27 January, Wednesday

Time Temperature Precipitation Wind Pressure Humidity
00:00 -32°C° 0 mm 1 mps 749 mmHg 98%
01:00 -33°C° 0 mm 1 mps 749 mmHg 98%
02:00 -33°C° 0 mm 1 mps 749 mmHg 98%
03:00 -33°C° 0 mm 1 mps 750 mmHg 98%
04:00 -33°C° 0 mm 1 mps 750 mmHg 98%
05:00 -33°C° 0 mm 1 mps 750 mmHg 98%
06:00 -33°C° 0 mm 1 mps 750 mmHg 98%
07:00 -34°C° 0 mm 1 mps 751 mmHg 98%
08:00 -34°C° 0 mm 1 mps 751 mmHg 97%
09:00 -33°C° 0 mm 1 mps 752 mmHg 96%
10:00 -33°C° 0 mm 1 mps 752 mmHg 95%
11:00 -33°C° 0 mm 1 mps 752 mmHg 94%
12:00 -32°C° 0 mm 1 mps 752 mmHg 92%
13:00 -31°C° 0 mm 1 mps 753 mmHg 91%
14:00 -32°C° 0 mm 1 mps 753 mmHg 92%
15:00 -32°C° 0 mm 1 mps 753 mmHg 94%
16:00 -32°C° 0 mm 1 mps 753 mmHg 95%
17:00 -34°C° 0 mm 1 mps 753 mmHg 96%
18:00 -35°C° 0 mm 0 mps 754 mmHg 97%
19:00 -36°C° 0 mm 0 mps 754 mmHg 98%
20:00 -36°C° 0 mm 0 mps 754 mmHg 98%
21:00 -37°C° 0 mm 0 mps 754 mmHg 97%
22:00 -37°C° 0 mm 0 mps 754 mmHg 97%
23:00 -37°C° 0 mm 1 mps 754 mmHg 97%

28 January, Thursday

Time Temperature Precipitation Wind Pressure Humidity
00:00 -37°C° 0 mm 1 mps 754 mmHg 96%
01:00 -37°C° 0 mm 1 mps 754 mmHg 96%
02:00 -37°C° 0 mm 1 mps 754 mmHg 95%
03:00 -37°C° 0 mm 1 mps 753 mmHg 95%
04:00 -37°C° 0 mm 1 mps 753 mmHg 94%
05:00 -39°C° 0 mm 2 mps 752 mmHg 94%
06:00 -39°C° 0 mm 2 mps 751 mmHg 93%
07:00 -39°C° 0 mm 2 mps 750 mmHg 93%
08:00 -37°C° 0 mm 2 mps 750 mmHg 91%
09:00 -35°C° 0 mm 2 mps 749 mmHg 89%
10:00 -35°C° 0 mm 3 mps 748 mmHg 86%
11:00 -33°C° 0 mm 3 mps 747 mmHg 85%
12:00 -31°C° 0 mm 3 mps 746 mmHg 84%
13:00 -30°C° 0 mm 3 mps 745 mmHg 83%
14:00 -29°C° 0 mm 3 mps 744 mmHg 84%
15:00 -27°C° 0 mm 3 mps 743 mmHg 85%
16:00 -26°C° 0 mm 3 mps 742 mmHg 86%
17:00 -24°C° 0.2 mm 2 mps 742 mmHg 90%
18:00 -24°C° 0.2 mm 2 mps 741 mmHg 94%
19:00 -23°C° 0.2 mm 2 mps 741 mmHg 98%
20:00 -21°C° 0.3 mm 2 mps 740 mmHg 97%
21:00 -20°C° 0.3 mm 2 mps 740 mmHg 97%
22:00 -17°C° 0.3 mm 1 mps 740 mmHg 97%
23:00 -16°C° 0.2 mm 1 mps 740 mmHg 97%

29 January, Friday

Time Temperature Precipitation Wind Pressure Humidity
00:00 -16°C° 0.2 mm 2 mps 740 mmHg 96%
01:00 -15°C° 0.2 mm 2 mps 740 mmHg 95%

30 January, Saturday

Time Temperature Precipitation Wind Pressure Humidity
Show more